DW0186 Weather Reports


time (UTC)temp
C
wind
direction
speed
KPH
gust
KPH
rain 1hr
cm
rain 24hr
cm
rain mn
cm
humidity
%
barometer
mb
20260507040029 15 360 0.0 0.0 0.00 0.00 0.00 80 1018.1
20260507034528 15 360 0.0 0.0 0.00 0.00 0.00 79 1018.0
20260507033034 16 360 0.0 0.0 0.00 0.00 0.00 78 1017.8
20260507031530 17 360 0.0 1.6 0.00 0.00 0.00 76 1017.6
20260507030028 17 360 0.0 0.0 0.00 0.00 0.00 74 1017.2
20260507024527 17 360 0.0 1.6 0.00 0.00 0.00 72 1017.0
20260507023027 18 355 0.0 1.6 0.00 0.00 0.00 71 1016.9
20260507021526 18 355 0.0 3.2 0.00 0.00 0.00 70 1016.7
20260507020026 19 355 0.0 1.6 0.00 0.00 0.00 68 1016.7
20260507014537 20 355 0.0 1.6 0.00 0.00 0.00 65 1016.7
20260507013026 21 355 0.0 3.2 0.00 0.00 0.00 62 1016.6
20260507011527 21 355 0.0 4.8 0.00 0.00 0.00 60 1016.6
20260507010022 21 355 0.0 1.6 0.00 0.00 0.00 59 1016.6
20260507004532 22 346 0.0 4.8 0.00 0.00 0.00 58 1016.5
20260507003023 22 338 0.0 1.6 0.00 0.00 0.00 56 1016.3
20260507001525 22 342 0.0 3.2 0.00 0.00 0.00 56 1016.4
20260507000025 23 336 0.0 1.6 0.00 0.00 0.00 55 1016.5
20260506234529 23 343 0.0 3.2 0.00 0.00 0.00 56 1016.5
20260506233017 23 347 0.0 1.6 0.00 0.00 0.00 56 1016.6
20260506231529 23 321 0.0 1.6 0.00 0.00 0.00 56 1016.7
20260506230014 23 336 0.0 1.6 0.00 0.00 0.00 55 1016.7
20260506224512 24 344 0.0 1.6 0.00 0.00 0.00 54 1017.0
20260506223010 24 346 0.0 1.6 0.00 0.00 0.00 53 1017.1
20260506221509 23 350 0.0 1.6 0.00 0.00 0.00 53 1017.2
20260506220006 23 350 0.0 0.0 0.00 0.00 0.00 55 1017.4
20260506214503 23 349 0.0 1.6 0.00 0.00 0.00 53 1017.7
20260506213002 23 348 0.0 0.0 0.00 0.00 0.00 54 1017.9
20260506211502 23 348 0.0 1.6 0.00 0.00 0.00 55 1018.0
20260506204600 22 348 0.0 1.6 0.00 0.00 0.00 56 1018.4
20260506203055 22 360 0.0 3.2 0.00 0.00 0.00 56 1018.5
20260506201604 22 355 0.0 1.6 0.00 0.00 0.00 57 1018.6
20260506200100 22 355 0.0 1.6 0.00 0.00 0.00 57 1018.8
20260506194603 22 355 0.0 4.8 0.00 0.00 0.00 58 1019.0
20260506193050 21 355 0.0 3.2 0.00 0.00 0.00 57 1019.0
20260506191549 21 348 0.0 3.2 0.00 0.00 0.00 58 1019.2
20260506190044 21 347 0.0 1.6 0.00 0.00 0.00 61 1019.3
20260506184542 20 346 0.0 0.0 0.00 0.00 0.00 61 1019.6
20260506183055 20 346 0.0 1.6 0.00 0.00 0.00 62 1019.5
20260506181538 19 346 0.0 1.6 0.00 0.00 0.00 65 1019.6
20260506180035 18 346 0.0 0.0 0.00 0.00 0.00 66 1019.7
20260506174528 17 346 0.0 0.0 0.00 0.00 0.00 70 1019.7
20260506173026 17 346 0.0 0.0 0.00 0.00 0.00 70 1019.8
20260506171529 16 346 0.0 0.0 0.00 0.00 0.00 74 1019.7
20260506170018 15 346 0.0 0.0 0.00 0.00 0.00 75 1019.9
20260506164516 15 346 0.0 0.0 0.00 0.00 0.00 76 1020.0
20260506163014 15 346 0.0 0.0 0.00 0.00 0.00 77 1019.9
20260506161511 15 346 0.0 1.6 0.00 0.00 0.00 79 1019.9
20260506160010 14 346 0.0 0.0 0.00 0.00 0.00 81 1019.9
20260506154503 13 346 0.0 0.0 0.00 0.00 0.00 81 1019.9
20260506153058 13 346 0.0 0.0 0.00 0.00 0.00 81 1019.9
20260506151556 13 346 0.0 0.0 0.00 0.00 0.00 82 1019.8
20260506150053 13 346 0.0 0.0 0.00 0.00 0.00 82 1019.9
20260506144601 12 346 0.0 0.0 0.00 0.00 0.00 83 1019.9
20260506143048 12 346 0.0 0.0 0.00 0.00 0.00 83 1019.8
20260506141546 12 346 0.0 0.0 0.00 0.00 0.00 83 1019.8
20260506140045 12 346 0.0 0.0 0.00 0.00 0.00 83 1019.6
20260506134540 12 346 0.0 0.0 0.00 0.00 0.00 83 1019.3
20260506133040 12 346 0.0 0.0 0.00 0.00 0.00 83 1019.1
20260506131537 12 346 0.0 0.0 0.00 0.00 0.00 83 1019.0
20260506130037 12 346 0.0 0.0 0.00 0.00 0.00 83 1019.0
20260506124536 12 346 0.0 0.0 0.00 0.00 0.00 83 1018.7
20260506123036 12 346 0.0 0.0 0.00 0.00 0.00 83 1018.7
20260506121533 12 346 0.0 0.0 0.00 0.00 0.00 83 1018.7
20260506120040 12 346 0.0 0.0 0.00 0.00 0.00 83 1018.5
20260506114533 12 346 0.0 0.0 0.00 0.00 0.00 83 1018.5
20260506113033 12 346 0.0 0.0 0.00 0.00 0.00 84 1018.4
20260506111530 12 346 0.0 0.0 0.00 0.00 0.00 83 1018.4
20260506110032 12 346 0.0 0.0 0.00 0.00 0.00 83 1018.2
20260506104529 12 346 0.0 0.0 0.00 0.00 0.00 82 1018.2
20260506103029 12 346 0.0 0.0 0.00 0.00 0.00 82 1018.2
20260506101527 13 346 0.0 0.0 0.00 0.00 0.00 82 1018.2
20260506100028 13 346 0.0 0.0 0.00 0.00 0.00 82 1018.2
20260506094525 13 346 0.0 0.0 0.00 0.00 0.00 81 1018.2
20260506093024 13 346 0.0 0.0 0.00 0.00 0.00 81 1018.4
20260506091524 13 346 0.0 0.0 0.00 0.00 0.00 81 1018.4
20260506090035 13 346 0.0 0.0 0.00 0.00 0.00 81 1018.3
20260506084524 13 346 0.0 0.0 0.00 0.00 0.00 81 1018.3
20260506083022 13 346 0.0 0.0 0.00 0.00 0.00 80 1018.3
20260506081521 13 346 0.0 0.0 0.00 0.00 0.00 80 1018.4
20260506073016 13 346 0.0 0.0 0.00 0.00 0.00 79 1017.9
20260506071514 13 346 0.0 0.0 0.00 0.00 0.00 78 1017.7
20260506061512 13 346 0.0 0.0 0.00 0.00 0.00 77 1017.4
20260506044506 14 346 0.0 0.0 0.00 0.00 0.00 74 1016.7
20260506043110 14 346 0.0 0.0 0.00 0.00 0.00 74 1016.6
20260506041600 14 346 0.0 0.0 0.00 0.00 0.00 73 1016.3